Time,TemperatureF,DewpointF,PressureIn,WindDirection,WindDirectionDegrees,WindSpeedMPH,WindSpeedGustMPH,Humidity,HourlyPrecipIn,Conditions,Clouds,dailyrainin,SoftwareType,DateUTC
2013-05-01 00:01:00,55.8,49.4,30.31,NE,40,0.0,2.0,79,0.00,,---,0.09,VWS V14.01,2013-05-01 04:01:00,
2013-05-01 00:06:00,55.6,49.5,30.31,NE,40,0.0,0.0,80,0.00,,---,0.00,VWS V14.01,2013-05-01 04:06:00,
2013-05-01 00:11:00,55.4,49.0,30.31,NE,39,0.0,0.0,79,0.00,,---,0.00,VWS V14.01,2013-05-01 04:11:00,
2013-05-01 00:16:00,55.3,49.2,30.31,NE,38,0.0,0.0,80,0.00,,---,0.00,VWS V14.01,2013-05-01 04:16:00,
2013-05-01 00:21:00,55.1,49.0,30.31,ENE,62,0.0,0.0,80,0.00,,---,0.00,VWS V14.01,2013-05-01 04:21:00,
2013-05-01 00:26:00,55.0,49.3,30.31,ENE,63,0.0,0.0,81,0.00,,---,0.00,VWS V14.01,2013-05-01 04:26:00,
2013-05-01 00:31:00,54.9,49.2,30.31,ENE,62,0.0,1.0,81,0.00,,---,0.00,VWS V14.01,2013-05-01 04:31:00,
2013-05-01 00:36:00,54.8,49.1,30.31,ENE,60,0.0,1.0,81,0.00,,---,0.00,VWS V14.01,2013-05-01 04:36:00,
2013-05-01 00:41:00,54.6,48.9,30.31,East,83,0.0,1.0,81,0.00,,---,0.00,VWS V14.01,2013-05-01 04:41:00,
2013-05-01 00:46:00,54.5,49.1,30.31,East,82,0.0,1.0,82,0.00,,---,0.00,VWS V14.01,2013-05-01 04:46:00,
2013-05-01 00:51:00,54.4,49.0,30.32,East,82,0.0,1.0,82,0.00,,---,0.00,VWS V14.01,2013-05-01 04:51:00,
2013-05-01 00:56:00,54.3,48.9,30.32,East,82,0.0,1.0,82,0.00,,---,0.00,VWS V14.01,2013-05-01 04:56:00,
2013-05-01 01:01:00,54.1,49.1,30.31,East,82,0.0,1.0,83,0.00,,---,0.00,VWS V14.01,2013-05-01 05:01:00,
2013-05-01 01:06:00,54.0,49.0,30.31,East,82,0.0,0.0,83,0.00,,---,0.00,VWS V14.01,2013-05-01 05:06:00,
2013-05-01 01:11:00,53.9,48.9,30.31,East,82,0.0,0.0,83,0.00,,---,0.00,VWS V14.01,2013-05-01 05:11:00,
2013-05-01 01:16:00,53.7,48.7,30.31,East,82,0.0,0.0,83,0.00,,---,0.00,VWS V14.01,2013-05-01 05:16:00,
2013-05-01 01:21:00,53.6,48.9,30.32,East,82,0.0,0.0,84,0.00,,---,0.00,VWS V14.01,2013-05-01 05:21:00,
2013-05-01 01:26:00,53.6,49.2,30.32,East,82,0.0,0.0,85,0.00,,---,0.00,VWS V14.01,2013-05-01 05:26:00,
2013-05-01 01:31:00,53.4,49.0,30.31,East,82,0.0,0.0,85,0.00,,---,0.00,VWS V14.01,2013-05-01 05:31:00,
2013-05-01 01:36:00,53.2,48.8,30.31,South,190,0.0,1.0,85,0.00,,---,0.00,VWS V14.01,2013-05-01 05:36:00,
2013-05-01 01:41:00,53.1,48.7,30.31,South,190,0.0,1.0,85,0.00,,---,0.00,VWS V14.01,2013-05-01 05:41:00,
2013-05-01 01:46:00,53.2,48.5,30.31,South,190,0.0,1.0,84,0.00,,---,0.00,VWS V14.01,2013-05-01 05:46:00,
2013-05-01 01:51:00,53.4,48.7,30.31,South,190,0.0,1.0,84,0.00,,---,0.00,VWS V14.01,2013-05-01 05:51:00,
2013-05-01 01:56:00,53.4,48.4,30.31,South,190,0.0,1.0,83,0.00,,---,0.00,VWS V14.01,2013-05-01 05:56:00,
2013-05-01 02:01:00,53.5,48.2,30.31,South,190,0.0,1.0,82,0.00,,---,0.00,VWS V14.01,2013-05-01 06:01:00,
2013-05-01 02:06:00,53.6,48.2,30.31,South,191,0.0,0.0,82,0.00,,---,0.00,VWS V14.01,2013-05-01 06:06:00,
2013-05-01 02:11:00,53.6,48.2,30.31,South,190,0.0,0.0,82,0.00,,---,0.00,VWS V14.01,2013-05-01 06:11:00,
2013-05-01 02:16:00,53.5,47.5,30.30,South,190,0.0,0.0,80,0.00,,---,0.00,VWS V14.01,2013-05-01 06:16:00,
2013-05-01 02:21:00,53.4,47.1,30.30,South,190,0.0,0.0,79,0.00,,---,0.00,VWS V14.01,2013-05-01 06:21:00,
2013-05-01 02:26:00,53.4,46.7,30.31,South,190,0.0,0.0,78,0.00,,---,0.00,VWS V14.01,2013-05-01 06:26:00,
2013-05-01 02:31:00,53.1,46.1,30.31,South,190,0.0,0.0,77,0.00,,---,0.00,VWS V14.01,2013-05-01 06:31:00,
2013-05-01 02:36:00,52.9,45.9,30.31,South,190,0.0,0.0,77,0.00,,---,0.00,VWS V14.01,2013-05-01 06:36:00,
2013-05-01 02:41:00,52.8,45.8,30.31,South,190,0.0,0.0,77,0.00,,---,0.00,VWS V14.01,2013-05-01 06:41:00,
2013-05-01 02:46:00,52.5,45.2,30.31,ESE,113,0.0,0.0,76,0.00,,---,0.00,VWS V14.01,2013-05-01 06:46:00,
2013-05-01 02:51:00,52.3,45.0,30.31,ESE,113,0.0,0.0,76,0.00,,---,0.00,VWS V14.01,2013-05-01 06:51:00,
2013-05-01 02:56:00,52.1,44.8,30.31,ESE,113,0.0,0.0,76,0.00,,---,0.00,VWS V14.01,2013-05-01 06:56:00,
2013-05-01 03:01:00,51.8,45.5,30.31,WNW,295,0.0,0.0,79,0.00,,---,0.00,VWS V14.01,2013-05-01 07:01:00,
2013-05-01 03:06:00,51.6,45.6,30.31,WNW,295,0.0,1.0,80,0.00,,---,0.00,VWS V14.01,2013-05-01 07:06:00,
2013-05-01 03:11:00,51.3,45.0,30.32,WNW,291,0.0,1.0,79,0.00,,---,0.00,VWS V14.01,2013-05-01 07:11:00,
2013-05-01 03:16:00,51.1,45.2,30.31,South,191,0.0,1.0,80,0.00,,---,0.00,VWS V14.01,2013-05-01 07:16:00,
2013-05-01 03:21:00,50.8,45.2,30.31,South,191,0.0,1.0,81,0.00,,---,0.00,VWS V14.01,2013-05-01 07:21:00,
2013-05-01 03:26:00,50.7,45.1,30.32,South,191,0.0,1.0,81,0.00,,---,0.00,VWS V14.01,2013-05-01 07:26:00,
2013-05-01 03:31:00,50.5,45.2,30.32,South,191,0.0,1.0,82,0.00,,---,0.00,VWS V14.01,2013-05-01 07:31:00,
2013-05-01 03:36:00,50.4,44.8,30.32,SSW,200,0.0,0.0,81,0.00,,---,0.00,VWS V14.01,2013-05-01 07:36:00,
2013-05-01 03:41:00,50.4,44.5,30.32,SW,224,0.0,1.0,80,0.00,,---,0.00,VWS V14.01,2013-05-01 07:41:00,
2013-05-01 03:46:00,50.4,44.1,30.32,SW,224,0.0,1.0,79,0.00,,---,0.00,VWS V14.01,2013-05-01 07:46:00,
2013-05-01 03:51:00,50.4,43.8,30.32,West,279,0.0,1.0,78,0.00,,---,0.00,VWS V14.01,2013-05-01 07:51:00,
2013-05-01 03:56:00,50.4,43.5,30.32,West,279,0.0,1.0,77,0.00,,---,0.00,VWS V14.01,2013-05-01 07:56:00,
2013-05-01 04:01:00,50.3,43.7,30.32,West,279,0.0,1.0,78,0.00,,---,0.00,VWS V14.01,2013-05-01 08:01:00,
2013-05-01 04:06:00,50.1,43.2,30.32,West,280,0.0,0.0,77,0.00,,---,0.00,VWS V14.01,2013-05-01 08:06:00,
2013-05-01 04:11:00,49.9,43.3,30.33,West,280,0.0,0.0,78,0.00,,---,0.00,VWS V14.01,2013-05-01 08:11:00,
2013-05-01 04:16:00,49.7,43.1,30.33,West,280,0.0,0.0,78,0.00,,---,0.00,VWS V14.01,2013-05-01 08:16:00,
2013-05-01 04:21:00,49.6,43.4,30.33,West,280,0.0,0.0,79,0.00,,---,0.00,VWS V14.01,2013-05-01 08:21:00,
2013-05-01 04:26:00,49.5,43.3,30.33,West,281,0.0,1.0,79,0.00,,---,0.00,VWS V14.01,2013-05-01 08:26:00,
2013-05-01 04:31:00,49.3,43.1,30.33,West,264,0.0,1.0,79,0.00,,---,0.00,VWS V14.01,2013-05-01 08:31:00,
2013-05-01 04:36:00,49.1,43.2,30.33,West,263,0.0,0.0,80,0.00,,---,0.00,VWS V14.01,2013-05-01 08:36:00,
2013-05-01 04:41:00,48.9,43.0,30.33,West,264,0.0,0.0,80,0.00,,---,0.00,VWS V14.01,2013-05-01 08:41:00,
2013-05-01 04:46:00,48.7,42.8,30.33,West,280,0.0,0.0,80,0.00,,---,0.00,VWS V14.01,2013-05-01 08:46:00,
2013-05-01 04:51:00,48.7,42.8,30.33,West,280,0.0,0.0,80,0.00,,---,0.00,VWS V14.01,2013-05-01 08:51:00,
2013-05-01 04:56:00,48.5,43.0,30.33,West,280,0.0,0.0,81,0.00,,---,0.00,VWS V14.01,2013-05-01 08:56:00,
2013-05-01 05:01:00,48.4,42.8,30.33,West,278,0.0,0.0,81,0.00,,---,0.00,VWS V14.01,2013-05-01 09:01:00,
2013-05-01 05:06:00,48.3,43.1,30.33,West,278,0.0,0.0,82,0.00,,---,0.00,VWS V14.01,2013-05-01 09:06:00,
2013-05-01 05:11:00,48.2,43.0,30.33,West,278,0.0,0.0,82,0.00,,---,0.00,VWS V14.01,2013-05-01 09:11:00,
2013-05-01 05:16:00,48.1,42.9,30.33,West,278,0.0,0.0,82,0.00,,---,0.00,VWS V14.01,2013-05-01 09:16:00,
2013-05-01 05:21:00,48.1,42.9,30.34,NNE,13,0.0,0.0,82,0.00,,---,0.00,VWS V14.01,2013-05-01 09:21:00,
2013-05-01 05:26:00,47.9,42.7,30.33,NNE,13,0.0,0.0,82,0.00,,---,0.00,VWS V14.01,2013-05-01 09:26:00,
2013-05-01 05:31:00,47.8,42.3,30.33,WNW,295,0.0,1.0,81,0.00,,---,0.00,VWS V14.01,2013-05-01 09:31:00,
2013-05-01 05:36:00,47.8,42.6,30.33,WNW,295,0.0,0.0,82,0.00,,---,0.00,VWS V14.01,2013-05-01 09:36:00,
2013-05-01 05:41:00,47.7,42.5,30.34,WNW,295,0.0,0.0,82,0.00,,---,0.00,VWS V14.01,2013-05-01 09:41:00,
2013-05-01 05:46:00,47.7,42.2,30.34,WNW,295,0.0,1.0,81,0.00,,---,0.00,VWS V14.01,2013-05-01 09:46:00,
2013-05-01 05:51:00,47.7,42.5,30.34,WNW,295,0.0,1.0,82,0.00,,---,0.00,VWS V14.01,2013-05-01 09:51:00,
2013-05-01 05:56:00,47.6,42.4,30.34,NW,306,0.0,1.0,82,0.00,,---,0.00,VWS V14.01,2013-05-01 09:56:00,
2013-05-01 06:01:00,47.6,42.4,30.34,West,274,0.0,1.0,82,0.00,,---,0.00,VWS V14.01,2013-05-01 10:01:00,
2013-05-01 06:06:00,47.6,42.7,30.34,West,274,0.0,0.0,83,0.00,,---,0.00,VWS V14.01,2013-05-01 10:06:00,
2013-05-01 06:11:00,47.4,42.5,30.34,West,273,0.0,0.0,83,0.00,,---,0.00,VWS V14.01,2013-05-01 10:11:00,
2013-05-01 06:16:00,47.5,42.6,30.34,SSW,201,0.0,1.0,83,0.00,,---,0.00,VWS V14.01,2013-05-01 10:16:00,
2013-05-01 06:21:00,47.4,42.5,30.35,SSW,203,0.0,1.0,83,0.00,,---,0.00,VWS V14.01,2013-05-01 10:21:00,
2013-05-01 06:26:00,47.4,42.5,30.35,SSW,203,0.0,1.0,83,0.00,,---,0.00,VWS V14.01,2013-05-01 10:26:00,
2013-05-01 06:31:00,47.6,42.4,30.35,West,264,0.0,1.0,82,0.00,,---,0.00,VWS V14.01,2013-05-01 10:31:00,
2013-05-01 06:36:00,47.7,42.5,30.35,West,264,0.0,1.0,82,0.00,,---,0.00,VWS V14.01,2013-05-01 10:36:00,
2013-05-01 06:41:00,47.7,42.5,30.36,SW,227,0.0,1.0,82,0.00,,---,0.00,VWS V14.01,2013-05-01 10:41:00,
2013-05-01 06:46:00,47.9,42.7,30.36,West,280,0.0,1.0,82,0.00,,---,0.00,VWS V14.01,2013-05-01 10:46:00,
2013-05-01 06:51:00,48.0,42.8,30.36,WNW,293,0.0,1.0,82,0.00,,---,0.00,VWS V14.01,2013-05-01 10:51:00,
2013-05-01 06:56:00,48.1,42.9,30.36,WNW,293,0.0,1.0,82,0.00,,---,0.00,VWS V14.01,2013-05-01 10:56:00,
2013-05-01 07:01:00,48.5,43.3,30.36,WSW,245,0.0,2.0,82,0.00,,---,0.00,VWS V14.01,2013-05-01 11:01:00,
2013-05-01 07:06:00,48.7,43.1,30.36,SSE,159,1.0,1.0,81,0.00,,---,0.00,VWS V14.01,2013-05-01 11:06:00,
2013-05-01 07:10:00,48.9,43.3,30.36,SSE,160,0.0,1.0,81,0.00,,---,0.00,VWS V14.01,2013-05-01 11:10:00,
2013-05-01 07:15:00,49.3,43.4,30.37,NNE,20,0.0,4.0,80,0.00,,---,0.00,VWS V14.01,2013-05-01 11:15:00,
2013-05-01 07:20:00,49.6,43.4,30.37,NW,308,0.0,4.0,79,0.00,,---,0.00,VWS V14.01,2013-05-01 11:20:00,
2013-05-01 07:25:00,49.9,43.7,30.37,NNW,335,0.0,4.0,79,0.00,,---,0.00,VWS V14.01,2013-05-01 11:25:00,
2013-05-01 07:30:00,50.2,44.0,30.37,WNW,302,0.0,4.0,79,0.00,,---,0.00,VWS V14.01,2013-05-01 11:30:00,
2013-05-01 07:35:00,50.5,44.2,30.38,North,4,0.0,1.0,79,0.00,,---,0.00,VWS V14.01,2013-05-01 11:35:00,
2013-05-01 07:40:00,50.7,44.4,30.38,North,4,0.0,1.0,79,0.00,,---,0.00,VWS V14.01,2013-05-01 11:40:00,
2013-05-01 07:45:00,50.9,44.6,30.38,ESE,113,0.0,1.0,79,0.00,,---,0.00,VWS V14.01,2013-05-01 11:45:00,
2013-05-01 07:50:00,51.1,44.2,30.38,NNE,13,0.0,1.0,77,0.00,,---,0.00,VWS V14.01,2013-05-01 11:50:00,
2013-05-01 07:55:00,51.5,44.5,30.38,North,9,0.0,4.0,77,0.00,,---,0.00,VWS V14.01,2013-05-01 11:55:00,
2013-05-01 08:00:00,51.8,44.5,30.38,WNW,300,0.0,5.0,76,0.00,,---,0.00,VWS V14.01,2013-05-01 12:00:00,
2013-05-01 08:05:00,52.1,44.8,30.38,WNW,300,0.0,0.0,76,0.00,,---,0.00,VWS V14.01,2013-05-01 12:05:00,
2013-05-01 08:10:00,52.4,44.7,30.39,WNW,300,0.0,1.0,75,0.00,,---,0.00,VWS V14.01,2013-05-01 12:10:00,
2013-05-01 08:15:00,52.5,44.1,30.39,ESE,115,1.0,2.0,73,0.00,,---,0.00,VWS V14.01,2013-05-01 12:15:00,
2013-05-01 08:20:00,52.7,44.3,30.39,ENE,72,0.0,2.0,73,0.00,,---,0.00,VWS V14.01,2013-05-01 12:20:00,
2013-05-01 08:25:00,53.1,44.3,30.39,NNW,328,2.0,2.0,72,0.00,,---,0.00,VWS V14.01,2013-05-01 12:25:00,
2013-05-01 08:30:00,53.5,44.3,30.39,NNW,343,0.0,2.0,71,0.00,,---,0.00,VWS V14.01,2013-05-01 12:30:00,
2013-05-01 08:35:00,53.9,44.3,30.39,SE,143,0.0,3.0,70,0.00,,---,0.00,VWS V14.01,2013-05-01 12:35:00,
2013-05-01 08:40:00,54.2,45.0,30.39,SE,143,0.0,3.0,71,0.00,,---,0.00,VWS V14.01,2013-05-01 12:40:00,
2013-05-01 08:45:00,54.7,45.5,30.39,SE,139,0.0,3.0,71,0.00,,---,0.00,VWS V14.01,2013-05-01 12:45:00,
2013-05-01 08:50:00,55.3,44.5,30.39,ENE,70,0.0,3.0,67,0.00,,---,0.00,VWS V14.01,2013-05-01 12:50:00,
2013-05-01 08:55:00,56.1,46.1,30.39,WNW,288,0.0,3.0,69,0.00,,---,0.00,VWS V14.01,2013-05-01 12:55:00,
2013-05-01 09:00:00,56.7,45.1,30.39,ENE,73,0.0,4.0,65,0.00,,---,0.00,VWS V14.01,2013-05-01 13:00:00,
2013-05-01 09:05:00,57.2,45.2,30.40,SW,224,1.0,2.0,64,0.00,,---,0.00,VWS V14.01,2013-05-01 13:05:00,
2013-05-01 09:10:00,57.7,45.6,30.39,ESE,115,0.0,2.0,64,0.00,,---,0.00,VWS V14.01,2013-05-01 13:10:00,
2013-05-01 09:15:00,58.4,46.3,30.40,West,266,0.0,2.0,64,0.00,,---,0.00,VWS V14.01,2013-05-01 13:15:00,
2013-05-01 09:20:00,59.0,46.4,30.40,ESE,108,0.0,2.0,63,0.00,,---,0.00,VWS V14.01,2013-05-01 13:20:00,
2013-05-01 09:25:00,59.6,46.6,30.40,ESE,103,0.0,2.0,62,0.00,,---,0.00,VWS V14.01,2013-05-01 13:25:00,
2013-05-01 09:30:00,60.2,46.3,30.40,ESE,117,0.0,2.0,60,0.00,,---,0.00,VWS V14.01,2013-05-01 13:30:00,
2013-05-01 09:35:00,60.5,45.7,30.40,East,96,0.0,0.0,58,0.00,,---,0.00,VWS V14.01,2013-05-01 13:35:00,
2013-05-01 09:40:00,60.9,46.5,30.40,SW,229,0.0,1.0,59,0.00,,---,0.00,VWS V14.01,2013-05-01 13:40:00,
2013-05-01 09:45:00,61.3,46.9,30.40,WSW,257,1.0,1.0,59,0.00,,---,0.00,VWS V14.01,2013-05-01 13:45:00,
2013-05-01 09:50:00,61.6,46.7,30.40,WSW,241,0.0,3.0,58,0.00,,---,0.00,VWS V14.01,2013-05-01 13:50:00,
2013-05-01 09:55:00,62.2,46.8,30.40,WNW,292,0.0,3.0,57,0.00,,---,0.00,VWS V14.01,2013-05-01 13:55:00,
2013-05-01 10:00:00,62.2,45.8,30.41,SSE,155,0.0,3.0,55,0.00,,---,0.00,VWS V14.01,2013-05-01 14:00:00,
2013-05-01 10:05:00,62.6,45.7,30.41,SE,128,0.0,1.0,54,0.00,,---,0.00,VWS V14.01,2013-05-01 14:05:00,
2013-05-01 10:10:00,63.3,47.3,30.41,SSE,152,0.0,1.0,56,0.00,,---,0.00,VWS V14.01,2013-05-01 14:10:00,
2013-05-01 10:15:00,63.4,46.0,30.41,West,271,0.0,2.0,53,0.00,,---,0.00,VWS V14.01,2013-05-01 14:15:00,
2013-05-01 10:20:00,63.4,45.0,30.41,NNE,29,1.0,3.0,51,0.00,,---,0.00,VWS V14.01,2013-05-01 14:20:00,
2013-05-01 10:25:00,63.5,46.1,30.41,NNE,30,0.0,3.0,53,0.00,,---,0.00,VWS V14.01,2013-05-01 14:25:00,
2013-05-01 10:30:00,63.9,44.9,30.42,ESE,103,0.0,3.0,50,0.00,,---,0.00,VWS V14.01,2013-05-01 14:30:00,
2013-05-01 10:35:00,64.5,44.4,30.42,NW,308,0.0,2.0,48,0.00,,---,0.00,VWS V14.01,2013-05-01 14:35:00,
2013-05-01 10:40:00,64.9,46.4,30.41,SE,145,0.0,2.0,51,0.00,,---,0.00,VWS V14.01,2013-05-01 14:40:00,
2013-05-01 10:45:00,65.1,43.8,30.42,SSE,151,1.0,3.0,46,0.00,,---,0.00,VWS V14.01,2013-05-01 14:45:00,
2013-05-01 10:50:00,64.5,43.3,30.42,ENE,61,0.0,4.0,46,0.00,,---,0.00,VWS V14.01,2013-05-01 14:50:00,
2013-05-01 10:55:00,64.8,44.7,30.42,NE,44,2.0,4.0,48,0.00,,---,0.00,VWS V14.01,2013-05-01 14:55:00,
2013-05-01 11:00:00,64.7,44.0,30.42,ENE,66,1.0,4.0,47,0.00,,---,0.00,VWS V14.01,2013-05-01 15:00:00,
2013-05-01 11:05:00,64.8,44.7,30.42,NW,312,0.0,4.0,48,0.00,,---,0.00,VWS V14.01,2013-05-01 15:05:00,
2013-05-01 11:10:00,65.5,45.3,30.42,ESE,120,0.0,4.0,48,0.00,,---,0.00,VWS V14.01,2013-05-01 15:10:00,
2013-05-01 11:15:00,66.1,43.6,30.41,ENE,76,1.0,4.0,44,0.00,,---,0.00,VWS V14.01,2013-05-01 15:15:00,
2013-05-01 11:20:00,66.4,46.1,30.41,North,11,2.0,4.0,48,0.00,,---,0.00,VWS V14.01,2013-05-01 15:20:00,
2013-05-01 11:25:00,66.3,45.5,30.41,NE,56,1.0,4.0,47,0.00,,---,0.00,VWS V14.01,2013-05-01 15:25:00,
2013-05-01 11:30:00,66.4,44.4,30.41,NNE,30,1.0,4.0,45,0.00,,---,0.00,VWS V14.01,2013-05-01 15:30:00,
2013-05-01 11:35:00,67.1,46.2,30.41,East,85,0.0,1.0,47,0.00,,---,0.00,VWS V14.01,2013-05-01 15:35:00,
2013-05-01 11:40:00,68.0,44.1,30.41,East,82,0.0,4.0,42,0.00,,---,0.00,VWS V14.01,2013-05-01 15:40:00,
2013-05-01 11:45:00,67.6,42.4,30.41,East,101,1.0,4.0,40,0.00,,---,0.00,VWS V14.01,2013-05-01 15:45:00,
2013-05-01 11:50:00,68.0,42.8,30.41,NNE,32,0.0,4.0,40,0.00,,---,0.00,VWS V14.01,2013-05-01 15:50:00,
2013-05-01 11:55:00,67.9,42.7,30.41,ENE,58,2.0,4.0,40,0.00,,---,0.00,VWS V14.01,2013-05-01 15:55:00,
2013-05-01 12:00:00,67.9,41.4,30.41,East,99,1.0,4.0,38,0.00,,---,0.00,VWS V14.01,2013-05-01 16:00:00,
2013-05-01 12:05:00,68.8,41.5,30.41,SSE,153,0.0,1.0,37,0.00,,---,0.00,VWS V14.01,2013-05-01 16:05:00,
2013-05-01 12:10:00,69.5,42.8,30.40,SE,132,0.0,2.0,38,0.00,,---,0.00,VWS V14.01,2013-05-01 16:10:00,
2013-05-01 12:15:00,70.1,43.3,30.40,NNE,23,0.0,3.0,38,0.00,,---,0.00,VWS V14.01,2013-05-01 16:15:00,
2013-05-01 12:20:00,69.7,40.8,30.40,East,89,0.0,3.0,35,0.00,,---,0.00,VWS V14.01,2013-05-01 16:20:00,
2013-05-01 12:25:00,70.0,43.9,30.40,ENE,61,0.0,3.0,39,0.00,,---,0.00,VWS V14.01,2013-05-01 16:25:00,
2013-05-01 12:30:00,69.4,41.3,30.40,ENE,68,5.0,5.0,36,0.00,,---,0.00,VWS V14.01,2013-05-01 16:30:00,
2013-05-01 12:35:00,69.2,41.8,30.40,WNW,288,0.0,2.0,37,0.00,,---,0.00,VWS V14.01,2013-05-01 16:35:00,
2013-05-01 12:40:00,69.5,42.8,30.40,ENE,65,2.0,2.0,38,0.00,,---,0.00,VWS V14.01,2013-05-01 16:40:00,
2013-05-01 12:45:00,69.7,43.0,30.40,NE,56,0.0,2.0,38,0.00,,---,0.00,VWS V14.01,2013-05-01 16:45:00,
2013-05-01 12:50:00,70.4,42.9,30.40,West,259,0.0,4.0,37,0.00,,---,0.00,VWS V14.01,2013-05-01 16:50:00,
2013-05-01 12:55:00,71.2,42.9,30.40,ENE,78,1.0,4.0,36,0.00,,---,0.00,VWS V14.01,2013-05-01 16:55:00,
2013-05-01 13:00:00,70.6,40.9,30.40,NE,44,0.0,4.0,34,0.00,,---,0.00,VWS V14.01,2013-05-01 17:00:00,
2013-05-01 13:05:00,71.0,42.0,30.40,East,93,1.0,2.0,35,0.00,,---,0.00,VWS V14.01,2013-05-01 17:05:00,
2013-05-01 13:10:00,70.5,40.8,30.40,SW,232,0.0,5.0,34,0.00,,---,0.00,VWS V14.01,2013-05-01 17:10:00,
2013-05-01 13:15:00,70.4,42.9,30.40,NNE,16,2.0,5.0,37,0.00,,---,0.00,VWS V14.01,2013-05-01 17:15:00,
2013-05-01 13:20:00,70.7,41.7,30.40,SE,136,1.0,5.0,35,0.00,,---,0.00,VWS V14.01,2013-05-01 17:20:00,
2013-05-01 13:25:00,70.6,40.9,30.40,NE,56,1.0,5.0,34,0.00,,---,0.00,VWS V14.01,2013-05-01 17:25:00,
2013-05-01 13:30:00,70.9,41.9,30.40,NE,47,5.0,5.0,35,0.00,,---,0.00,VWS V14.01,2013-05-01 17:30:00,
2013-05-01 13:35:00,70.6,41.7,30.40,NNW,327,2.0,4.0,35,0.00,,---,0.00,VWS V14.01,2013-05-01 17:35:00,
2013-05-01 13:40:00,70.5,41.6,30.39,East,99,1.0,4.0,35,0.00,,---,0.00,VWS V14.01,2013-05-01 17:40:00,
2013-05-01 13:45:00,70.7,43.9,30.39,East,88,1.0,4.0,38,0.00,,---,0.00,VWS V14.01,2013-05-01 17:45:00,
2013-05-01 13:50:00,71.2,43.6,30.39,SE,126,0.0,4.0,37,0.00,,---,0.00,VWS V14.01,2013-05-01 17:50:00,
2013-05-01 13:55:00,70.9,44.0,30.39,NE,46,0.0,4.0,38,0.00,,---,0.00,VWS V14.01,2013-05-01 17:55:00,
2013-05-01 14:00:00,70.9,44.0,30.39,East,92,1.0,4.0,38,0.00,,---,0.00,VWS V14.01,2013-05-01 18:00:00,
2013-05-01 14:05:00,71.2,44.3,30.39,North,358,0.0,3.0,38,0.00,,---,0.00,VWS V14.01,2013-05-01 18:05:00,
2013-05-01 14:10:00,71.2,42.2,30.39,SW,216,1.0,6.0,35,0.00,,---,0.00,VWS V14.01,2013-05-01 18:10:00,
2013-05-01 14:15:00,71.2,42.9,30.39,ENE,72,0.0,6.0,36,0.00,,---,0.00,VWS V14.01,2013-05-01 18:15:00,
2013-05-01 14:20:00,71.4,43.8,30.39,SE,134,0.0,6.0,37,0.00,,---,0.00,VWS V14.01,2013-05-01 18:20:00,
2013-05-01 14:25:00,71.5,42.4,30.39,ENE,60,0.0,6.0,35,0.00,,---,0.00,VWS V14.01,2013-05-01 18:25:00,
2013-05-01 14:30:00,71.4,43.8,30.39,NNW,346,0.0,6.0,37,0.00,,---,0.00,VWS V14.01,2013-05-01 18:30:00,
2013-05-01 14:35:00,71.4,43.1,30.39,North,8,0.0,3.0,36,0.00,,---,0.00,VWS V14.01,2013-05-01 18:35:00,
2013-05-01 14:40:00,71.5,42.4,30.39,NNW,338,1.0,3.0,35,0.00,,---,0.00,VWS V14.01,2013-05-01 18:40:00,
2013-05-01 14:45:00,71.4,43.1,30.39,WSW,253,0.0,3.0,36,0.00,,---,0.00,VWS V14.01,2013-05-01 18:45:00,
2013-05-01 14:50:00,72.1,45.8,30.39,ESE,113,1.0,3.0,39,0.00,,---,0.00,VWS V14.01,2013-05-01 18:50:00,
2013-05-01 14:55:00,71.8,42.0,30.38,SW,232,0.0,3.0,34,0.00,,---,0.00,VWS V14.01,2013-05-01 18:55:00,
2013-05-01 15:00:00,72.6,42.7,30.38,NE,44,0.0,3.0,34,0.00,,---,0.00,VWS V14.01,2013-05-01 19:00:00,
2013-05-01 15:05:00,72.4,42.5,30.39,SE,125,0.0,3.0,34,0.00,,---,0.00,VWS V14.01,2013-05-01 19:05:00,
2013-05-01 15:10:00,72.3,43.1,30.39,ESE,117,0.0,3.0,35,0.00,,---,0.00,VWS V14.01,2013-05-01 19:10:00,
2013-05-01 15:15:00,72.1,42.2,30.39,NE,36,3.0,3.0,34,0.00,,---,0.00,VWS V14.01,2013-05-01 19:15:00,
2013-05-01 15:20:00,71.7,43.3,30.38,WNW,286,1.0,4.0,36,0.00,,---,0.00,VWS V14.01,2013-05-01 19:20:00,
2013-05-01 15:25:00,71.6,41.8,30.38,ENE,72,0.0,4.0,34,0.00,,---,0.00,VWS V14.01,2013-05-01 19:25:00,
2013-05-01 15:30:00,71.2,41.4,30.38,West,268,1.0,4.0,34,0.00,,---,0.00,VWS V14.01,2013-05-01 19:30:00,
2013-05-01 15:35:00,71.3,44.4,30.38,WSW,248,0.0,1.0,38,0.00,,---,0.00,VWS V14.01,2013-05-01 19:35:00,
2013-05-01 15:40:00,71.9,43.5,30.38,SE,145,0.0,2.0,36,0.00,,---,0.00,VWS V14.01,2013-05-01 19:40:00,
2013-05-01 15:45:00,72.4,42.5,30.38,SE,145,1.0,2.0,34,0.00,,---,0.00,VWS V14.01,2013-05-01 19:45:00,
2013-05-01 15:50:00,72.4,41.7,30.38,ESE,112,0.0,2.0,33,0.00,,---,0.00,VWS V14.01,2013-05-01 19:50:00,
2013-05-01 15:55:00,72.0,40.6,30.38,West,268,1.0,3.0,32,0.00,,---,0.00,VWS V14.01,2013-05-01 19:55:00,
2013-05-01 16:00:00,71.9,42.0,30.38,North,9,0.0,3.0,34,0.00,,---,0.00,VWS V14.01,2013-05-01 20:00:00,
2013-05-01 16:05:00,72.4,41.7,30.38,ENE,68,0.0,2.0,33,0.00,,---,0.00,VWS V14.01,2013-05-01 20:05:00,
2013-05-01 16:10:00,72.1,41.4,30.38,NNW,327,0.0,3.0,33,0.00,,---,0.00,VWS V14.01,2013-05-01 20:10:00,
2013-05-01 16:15:00,71.6,41.8,30.38,NE,46,0.0,3.0,34,0.00,,---,0.00,VWS V14.01,2013-05-01 20:15:00,
2013-05-01 16:20:00,72.2,41.5,30.38,NE,49,1.0,4.0,33,0.00,,---,0.00,VWS V14.01,2013-05-01 20:20:00,
2013-05-01 16:25:00,72.3,40.8,30.38,SSE,158,0.0,4.0,32,0.00,,---,0.00,VWS V14.01,2013-05-01 20:25:00,
2013-05-01 16:30:00,72.6,42.7,30.38,NE,51,0.0,4.0,34,0.00,,---,0.00,VWS V14.01,2013-05-01 20:30:00,
2013-05-01 16:35:00,73.1,43.1,30.38,NNE,30,1.0,1.0,34,0.00,,---,0.00,VWS V14.01,2013-05-01 20:35:00,
2013-05-01 16:40:00,72.7,43.5,30.38,East,100,1.0,2.0,35,0.00,,---,0.00,VWS V14.01,2013-05-01 20:40:00,
2013-05-01 16:45:00,72.8,41.3,30.38,ENE,64,1.0,3.0,32,0.00,,---,0.00,VWS V14.01,2013-05-01 20:45:00,
2013-05-01 16:50:00,73.3,42.5,30.38,NE,44,0.0,3.0,33,0.00,,---,0.00,VWS V14.01,2013-05-01 20:50:00,
2013-05-01 16:55:00,73.2,42.4,30.38,NNE,32,0.0,3.0,33,0.00,,---,0.00,VWS V14.01,2013-05-01 20:55:00,
2013-05-01 17:00:00,73.3,43.3,30.38,NNE,23,1.0,3.0,34,0.00,,---,0.00,VWS V14.01,2013-05-01 21:00:00,
2013-05-01 17:05:00,73.6,41.1,30.39,NNE,31,2.0,2.0,31,0.00,,---,0.00,VWS V14.01,2013-05-01 21:05:00,
2013-05-01 17:10:00,73.1,43.1,30.39,ESE,103,0.0,3.0,34,0.00,,---,0.00,VWS V14.01,2013-05-01 21:10:00,
2013-05-01 17:15:00,73.6,42.8,30.39,South,188,0.0,3.0,33,0.00,,---,0.00,VWS V14.01,2013-05-01 21:15:00,
2013-05-01 17:20:00,74.5,40.2,30.39,NNE,32,0.0,3.0,29,0.00,,---,0.00,VWS V14.01,2013-05-01 21:20:00,
2013-05-01 17:25:00,74.1,41.6,30.39,West,276,0.0,3.0,31,0.00,,---,0.00,VWS V14.01,2013-05-01 21:25:00,
2013-05-01 17:30:00,73.9,43.0,30.39,NE,53,0.0,3.0,33,0.00,,---,0.00,VWS V14.01,2013-05-01 21:30:00,
2013-05-01 17:35:00,73.1,43.1,30.39,NE,46,0.0,1.0,34,0.00,,---,0.00,VWS V14.01,2013-05-01 21:35:00,
2013-05-01 17:40:00,72.7,39.5,30.39,South,171,1.0,3.0,30,0.00,,---,0.00,VWS V14.01,2013-05-01 21:40:00,
2013-05-01 17:45:00,72.2,41.5,30.39,South,169,0.0,3.0,33,0.00,,---,0.00,VWS V14.01,2013-05-01 21:45:00,
2013-05-01 17:50:00,73.1,40.7,30.39,ESE,121,0.0,3.0,31,0.00,,---,0.00,VWS V14.01,2013-05-01 21:50:00,
2013-05-01 17:55:00,72.4,38.4,30.39,North,354,2.0,3.0,29,0.00,,---,0.00,VWS V14.01,2013-05-01 21:55:00,
2013-05-01 18:00:00,71.2,39.9,30.39,SW,226,0.0,3.0,32,0.00,,---,0.00,VWS V14.01,2013-05-01 22:00:00,
2013-05-01 18:05:00,70.6,39.3,30.39,South,177,0.0,0.0,32,0.00,,---,0.00,VWS V14.01,2013-05-01 22:05:00,
2013-05-01 18:10:00,70.0,38.8,30.39,ENE,65,0.0,2.0,32,0.00,,---,0.00,VWS V14.01,2013-05-01 22:10:00,
2013-05-01 18:15:00,69.3,39.8,30.39,NE,37,0.0,3.0,34,0.00,,---,0.00,VWS V14.01,2013-05-01 22:15:00,
2013-05-01 18:20:00,68.5,38.3,30.39,NE,37,0.0,3.0,33,0.00,,---,0.00,VWS V14.01,2013-05-01 22:20:00,
2013-05-01 18:25:00,68.0,39.3,30.39,ENE,76,0.0,3.0,35,0.00,,---,0.00,VWS V14.01,2013-05-01 22:25:00,
2013-05-01 18:30:00,67.5,38.2,30.39,ENE,61,0.0,3.0,34,0.00,,---,0.00,VWS V14.01,2013-05-01 22:30:00,
2013-05-01 18:35:00,67.1,38.6,30.39,NE,56,0.0,1.0,35,0.00,,---,0.00,VWS V14.01,2013-05-01 22:35:00,
2013-05-01 18:40:00,66.9,38.4,30.39,ENE,77,0.0,1.0,35,0.00,,---,0.00,VWS V14.01,2013-05-01 22:40:00,
2013-05-01 18:44:00,66.5,38.0,30.39,ENE,58,0.0,1.0,35,0.00,,---,0.00,VWS V14.01,2013-05-01 22:44:00,
2013-05-01 18:49:00,66.1,36.9,30.39,East,101,1.0,2.0,34,0.00,,---,0.00,VWS V14.01,2013-05-01 22:49:00,
2013-05-01 18:54:00,65.8,36.7,30.39,East,101,0.0,2.0,34,0.00,,---,0.00,VWS V14.01,2013-05-01 22:54:00,
2013-05-01 19:00:00,65.4,37.1,30.39,East,79,1.0,2.0,35,0.00,,---,0.00,VWS V14.01,2013-05-01 23:00:00,
2013-05-01 19:05:00,65.1,36.8,30.39,ENE,66,0.0,1.0,35,0.00,,---,0.00,VWS V14.01,2013-05-01 23:05:00,
2013-05-01 19:09:00,64.8,37.9,30.39,ENE,65,0.0,1.0,37,0.00,,---,0.00,VWS V14.01,2013-05-01 23:09:00,
2013-05-01 19:14:00,64.5,37.7,30.39,East,97,1.0,1.0,37,0.00,,---,0.00,VWS V14.01,2013-05-01 23:14:00,
2013-05-01 19:19:00,64.4,37.6,30.39,East,94,0.0,1.0,37,0.00,,---,0.00,VWS V14.01,2013-05-01 23:19:00,
2013-05-01 19:25:00,64.2,38.1,30.39,East,94,0.0,1.0,38,0.00,,---,0.00,VWS V14.01,2013-05-01 23:25:00,
2013-05-01 19:29:00,63.9,38.5,30.38,West,259,0.0,1.0,39,0.00,,---,0.00,VWS V14.01,2013-05-01 23:29:00,
2013-05-01 19:34:00,63.6,37.5,30.38,ENE,77,0.0,2.0,38,0.00,,---,0.00,VWS V14.01,2013-05-01 23:34:00,
2013-05-01 19:39:00,63.5,38.1,30.38,ENE,77,0.0,2.0,39,0.00,,---,0.00,VWS V14.01,2013-05-01 23:39:00,
2013-05-01 19:44:00,63.3,38.0,30.38,ENE,76,0.0,2.0,39,0.00,,---,0.00,VWS V14.01,2013-05-01 23:44:00,
2013-05-01 19:49:00,63.0,38.3,30.39,ENE,76,0.0,2.0,40,0.00,,---,0.00,VWS V14.01,2013-05-01 23:49:00,
2013-05-01 19:54:00,62.6,38.6,30.39,ENE,76,0.0,2.0,41,0.00,,---,0.00,VWS V14.01,2013-05-01 23:54:00,
2013-05-01 19:59:00,62.3,38.3,30.39,ENE,76,0.0,2.0,41,0.00,,---,0.00,VWS V14.01,2013-05-01 23:59:00,
2013-05-01 20:04:00,61.9,38.6,30.39,ENE,76,0.0,0.0,42,0.00,,---,0.00,VWS V14.01,2013-05-02 00:04:00,
2013-05-01 20:09:00,61.6,38.3,30.39,ENE,76,0.0,0.0,42,0.00,,---,0.00,VWS V14.01,2013-05-02 00:09:00,
2013-05-01 20:14:00,61.4,39.3,30.39,ENE,76,0.0,0.0,44,0.00,,---,0.00,VWS V14.01,2013-05-02 00:14:00,
2013-05-01 20:19:00,61.1,39.6,30.40,SW,231,1.0,2.0,45,0.00,,---,0.00,VWS V14.01,2013-05-02 00:19:00,
2013-05-01 20:24:00,61.0,42.8,30.40,ENE,68,0.0,2.0,51,0.00,,---,0.00,VWS V14.01,2013-05-02 00:24:00,
2013-05-01 20:29:00,60.9,44.2,30.40,SSE,152,0.0,2.0,54,0.00,,---,0.00,VWS V14.01,2013-05-02 00:29:00,
2013-05-01 20:34:00,60.5,44.7,30.41,SSE,152,0.0,0.0,56,0.00,,---,0.00,VWS V14.01,2013-05-02 00:34:00,
2013-05-01 20:39:00,60.3,45.5,30.41,ENE,68,0.0,3.0,58,0.00,,---,0.00,VWS V14.01,2013-05-02 00:39:00,
2013-05-01 20:44:00,60.1,46.2,30.41,North,4,0.0,3.0,60,0.00,,---,0.00,VWS V14.01,2013-05-02 00:44:00,
2013-05-01 20:49:00,59.6,45.7,30.41,ENE,75,0.0,3.0,60,0.00,,---,0.00,VWS V14.01,2013-05-02 00:49:00,
2013-05-01 20:54:00,59.3,45.4,30.41,ESE,108,0.0,3.0,60,0.00,,---,0.00,VWS V14.01,2013-05-02 00:54:00,
2013-05-01 20:59:00,58.9,45.5,30.42,ENE,75,0.0,3.0,61,0.00,,---,0.00,VWS V14.01,2013-05-02 00:59:00,
2013-05-01 21:04:00,58.8,45.4,30.42,ENE,58,0.0,0.0,61,0.00,,---,0.00,VWS V14.01,2013-05-02 01:04:00,
2013-05-01 21:09:00,58.5,45.1,30.42,NE,46,0.0,1.0,61,0.00,,---,0.00,VWS V14.01,2013-05-02 01:09:00,
2013-05-01 21:14:00,58.2,44.8,30.42,NE,42,0.0,1.0,61,0.00,,---,0.00,VWS V14.01,2013-05-02 01:14:00,
2013-05-01 21:19:00,57.9,44.5,30.43,NE,43,0.0,1.0,61,0.00,,---,0.00,VWS V14.01,2013-05-02 01:19:00,
2013-05-01 21:24:00,57.6,44.3,30.43,East,101,0.0,1.0,61,0.00,,---,0.00,VWS V14.01,2013-05-02 01:24:00,
2013-05-01 21:29:00,57.5,44.6,30.43,East,98,0.0,1.0,62,0.00,,---,0.00,VWS V14.01,2013-05-02 01:29:00,
2013-05-01 21:34:00,57.2,44.3,30.43,SSW,209,0.0,0.0,62,0.00,,---,0.00,VWS V14.01,2013-05-02 01:34:00,
2013-05-01 21:39:00,57.0,44.5,30.43,SSW,203,0.0,0.0,63,0.00,,---,0.00,VWS V14.01,2013-05-02 01:39:00,
2013-05-01 21:44:00,56.8,44.3,30.43,NE,49,0.0,2.0,63,0.00,,---,0.00,VWS V14.01,2013-05-02 01:44:00,
2013-05-01 21:49:00,56.7,44.7,30.43,NNE,30,0.0,2.0,64,0.00,,---,0.00,VWS V14.01,2013-05-02 01:49:00,
2013-05-01 21:54:00,56.5,44.9,30.43,East,101,0.0,2.0,65,0.00,,---,0.00,VWS V14.01,2013-05-02 01:54:00,
2013-05-01 21:59:00,56.3,44.7,30.43,ESE,102,0.0,2.0,65,0.00,,---,0.00,VWS V14.01,2013-05-02 01:59:00,
2013-05-01 22:04:00,56.3,45.1,30.42,SSW,203,0.0,3.0,66,0.00,,---,0.00,VWS V14.01,2013-05-02 02:04:00,
2013-05-01 22:09:00,56.2,45.4,30.42,NNE,26,0.0,3.0,67,0.00,,---,0.00,VWS V14.01,2013-05-02 02:09:00,
2013-05-01 22:14:00,56.0,45.2,30.43,ESE,111,0.0,3.0,67,0.00,,---,0.00,VWS V14.01,2013-05-02 02:14:00,
2013-05-01 22:19:00,55.9,45.1,30.43,NE,34,0.0,3.0,67,0.00,,---,0.00,VWS V14.01,2013-05-02 02:19:00,
2013-05-01 22:24:00,55.8,45.0,30.43,North,6,0.0,3.0,67,0.00,,---,0.00,VWS V14.01,2013-05-02 02:24:00,
2013-05-01 22:29:00,55.7,44.9,30.43,NE,40,0.0,3.0,67,0.00,,---,0.00,VWS V14.01,2013-05-02 02:29:00,
2013-05-01 22:34:00,55.6,45.2,30.43,NE,40,0.0,0.0,68,0.00,,---,0.00,VWS V14.01,2013-05-02 02:34:00,
2013-05-01 22:39:00,55.4,45.0,30.43,NE,40,0.0,0.0,68,0.00,,---,0.00,VWS V14.01,2013-05-02 02:39:00,
2013-05-01 22:44:00,55.1,45.1,30.42,West,271,0.0,0.0,69,0.00,,---,0.00,VWS V14.01,2013-05-02 02:44:00,
2013-05-01 22:49:00,54.8,44.8,30.42,West,271,0.0,0.0,69,0.00,,---,0.00,VWS V14.01,2013-05-02 02:49:00,
2013-05-01 22:54:00,54.5,44.9,30.42,West,275,0.0,0.0,70,0.00,,---,0.00,VWS V14.01,2013-05-02 02:54:00,
2013-05-01 22:59:00,54.3,45.1,30.43,West,274,0.0,0.0,71,0.00,,---,0.00,VWS V14.01,2013-05-02 02:59:00,
2013-05-01 23:04:00,54.0,45.2,30.43,NNE,32,0.0,0.0,72,0.00,,---,0.00,VWS V14.01,2013-05-02 03:04:00,
2013-05-01 23:09:00,53.8,45.0,30.43,NNE,32,0.0,0.0,72,0.00,,---,0.00,VWS V14.01,2013-05-02 03:09:00,
2013-05-01 23:14:00,53.7,45.3,30.43,NE,40,0.0,0.0,73,0.00,,---,0.00,VWS V14.01,2013-05-02 03:14:00,
2013-05-01 23:19:00,53.6,45.2,30.43,NE,40,0.0,0.0,73,0.00,,---,0.00,VWS V14.01,2013-05-02 03:19:00,
2013-05-01 23:24:00,53.5,45.1,30.43,NE,40,0.0,0.0,73,0.00,,---,0.00,VWS V14.01,2013-05-02 03:24:00,
2013-05-01 23:29:00,53.4,45.0,30.43,NE,40,0.0,0.0,73,0.00,,---,0.00,VWS V14.01,2013-05-02 03:29:00,
2013-05-01 23:34:00,53.1,45.0,30.44,NE,40,0.0,0.0,74,0.00,,---,0.00,VWS V14.01,2013-05-02 03:34:00,
2013-05-01 23:39:00,52.8,45.1,30.43,NE,40,0.0,0.0,75,0.00,,---,0.00,VWS V14.01,2013-05-02 03:39:00,
2013-05-01 23:44:00,52.5,44.8,30.44,NE,40,0.0,0.0,75,0.00,,---,0.00,VWS V14.01,2013-05-02 03:44:00,
2013-05-01 23:49:00,52.3,45.0,30.44,NE,40,0.0,0.0,76,0.00,,---,0.00,VWS V14.01,2013-05-02 03:49:00,
2013-05-01 23:54:00,52.1,44.8,30.45,NE,39,0.0,0.0,76,0.00,,---,0.00,VWS V14.01,2013-05-02 03:54:00,
2013-05-01 23:59:00,51.9,44.9,30.44,NE,43,0.0,0.0,77,0.00,,---,0.00,VWS V14.01,2013-05-02 03:59:00,